Home > Weather > Jacksonville > Past weeks

Flag for USA Past Weather in Jacksonville, North Carolina, USA — Yesterday and Last 2 Weeks

Now
74 °F

Light rain. Overcast.


Feels Like: 72 °F
Forecast: 70 / 80 °F
Wind: 9 mph from East

Location: Jacksonville - New River

Current Time: May 29, 2016 at 5:43:51 AM

Latest Report: May 29, 2016 at 5:03 AM


Visibility: 7 mi

Pressure: 30.04 "Hg

Humidity: 91%

Dew Point: 71 °F

Location of JacksonvilleLocation

Past Weather in Jacksonville — Graph

°F

Jacksonville Temperature Yesterday

Maximum temperature yesterday: 83 °F (at 11:56 AM)
Minimum temperature yesterday: 64 °F (at 3:56 AM)
Average temperature yesterday: 75 °F

High & Low Weather Summary for the Past Weeks

 TemperatureHumidityPressure
High84 °F (May 25, 12:56 PM)100% (May 14, 8:56 AM)30.28 "Hg (May 14, 8:56 AM)
Low47 °F (May 16, 3:56 AM)31% (May 15, 4:56 PM)29.73 "Hg (May 14, 6:56 PM)
Average68 °F73%30.06 "Hg
* Reported May 14 3:04 AM — May 29 3:56 AM, Jacksonville, Weather by CustomWeather, © 2016

Note: Actual official high and low records may vary slightly from our data, if they occured in-between our weather recording intervals... More about our weather records

Advertising

Jacksonville Weather History for the Previous 24 Hours

Scroll right to see more
 ConditionsComfort  
Time TempWeatherWind HumidityBarometerVisibility
3:56 AM
Sun, May 29
74 °FLight rain. Passing clouds.8 mph91%30.05 "Hg10 mi
2:56 AM73 °FClear.7 mph94%30.06 "Hg10 mi
1:56 AM74 °FPassing clouds.10 mph91%30.07 "Hg10 mi
12:56 AM74 °FLight rain. Partly cloudy.10 mph88%30.09 "Hg10 mi
11:56 PM
Sat, May 28
74 °FPassing clouds.8 mph85%30.11 "Hg10 mi
10:56 PM75 °FPassing clouds.6 mph82%30.11 "Hg10 mi
9:56 PM76 °FPassing clouds.10 mph80%30.11 "Hg10 mi
8:56 PM77 °FSunny.7 mph77%30.11 "Hg10 mi
7:56 PM78 °FSunny.9 mph69%30.11 "Hg10 mi
6:56 PM80 °FSunny.13 mph64%30.10 "Hg10 mi
5:56 PM83 °FPassing clouds.12 mph57%30.10 "Hg10 mi
4:56 PM83 °FSunny.13 mph59%30.11 "Hg10 mi
3:56 PM83 °FPassing clouds.13 mph59%30.12 "Hg10 mi
2:56 PM83 °FScattered clouds.13 mph55%30.14 "Hg10 mi
1:56 PM83 °FPartly sunny.14 mph55%30.15 "Hg10 mi
12:56 PM82 °FSunny.13 mph56%30.17 "Hg10 mi
11:56 AM83 °FBroken clouds.13 mph61%30.17 "Hg10 mi
10:56 AM82 °FPassing clouds.12 mph60%30.18 "Hg10 mi
9:56 AM78 °FScattered clouds.8 mph66%30.16 "Hg10 mi
8:56 AM76 °FSunny.8 mph77%30.16 "Hg10 mi
7:56 AM73 °FSunny.3 mph81%30.15 "Hg10 mi
6:56 AM67 °FClear.No wind90%30.15 "Hg10 mi
5:56 AM64 °FClear.No wind94%30.14 "Hg10 mi
Weather by CustomWeather, © 2016

See weather overviewHow to use our weather pages